{"data":{"norad_id":56902,"epoch":"2026-05-24T23:51:21.229344Z","epoch_age_seconds":65661,"freshness":"FRESH","line1":"1 56902U 23083AC  26144.99399571  .00000435  00000+0  25331-4 0  9996","line2":"2 56902  43.0059   0.1239 0000951 257.3022 102.7724 15.27578000163576","mean_motion":15.27578,"eccentricity":9.51e-5,"inclination_deg":43.0059,"raan_deg":0.1239,"arg_perigee_deg":257.3022,"mean_anomaly_deg":102.7724,"bstar":2.5331e-5,"rev_number":16357,"period_min":94.266872133534,"perigee_km":482.40258539842,"apogee_km":483.70758413295,"semimajor_km":6861.1920847657,"source":"CELESTRAK","updated_at":"2026-05-25T13:38:18.200581Z"}}